{"data":{"norad_id":49449,"epoch":"2026-05-24T21:31:33.220992Z","epoch_age_seconds":79868,"freshness":"FRESH","line1":"1 49449U 21104AT  26144.89691228  .00044937  00000+0  86853-3 0  9999","line2":"2 49449  53.2157 204.4085 0002786 356.0906   4.0080 15.47353181250748","mean_motion":15.47353181,"eccentricity":0.0002786,"inclination_deg":53.2157,"raan_deg":204.4085,"arg_perigee_deg":356.0906,"mean_anomaly_deg":4.008,"bstar":0.00086853,"rev_number":25074,"period_min":93.062141060089,"perigee_km":422.57727266343,"apogee_km":426.3676866655,"semimajor_km":6802.6094796645,"source":"CELESTRAK","updated_at":"2026-05-25T13:38:16.803340Z"}}